Wind_Speed
95 89 93 90 92 91 94 91 86 88 83 85 90 90 88 86 88 82 75 76 80 78 77 75 75 77 74 73 79 73 74 74 73 74 74 73 76 74 75 75 77 75 77 77 76 79 81
98 95 94 95 93 92 92 90 87 91 92 90 94 95 89 85 86 85 83 79 78 78 77 73 75 75 74 72 78 76 75 75 74 72 75 78 78 80 81 83 82 78 77 79 78 80 77
97 101 97 97 96 95 94 91 90 91 95 97 95 92 93 89 90 93 87 84 84 82 83 81 76 76 74 75 80 77 76 77 76 78 76 77 78 82 82 80 81 86 83 84 81 78 77
99 100 100 100 99 98 97 100 100 98 94 92 92 94 93 90 89 90 88 87 84 84 78 79 79 81 79 82 80 82 83 81 83 85 82 85 84 84 87 87 86 88 86 83 81 87 87
100 100 102 104 105 104 106 106 106 103 98 95 95 92 93 94 94 92 88 83 81 81 80 82 85 82 81 82 86 87 86 86 85 85 86 87 88 90 91 92 91 88 87 91 86 90 95
108 109 106 106 107 106 104 107 102 99 97 98 101 97 95 94 92 89 91 88 86 86 87 85 89 85 85 86 87 85 86 86 89 91 93 95 95 93 92 95 94 92 93 90 87 91 103
110 112 110 108 109 107 107 107 105 101 100 100 104 103 104 103 95 93 95 96 92 97 91 91 92 86 88 90 86 83 85 89 92 95 96 99 97 93 97 97 97 100 101 97 92 97 110
110 110 109 110 110 111 109 108 109 109 104 103 105 101 100 100 97 98 98 99 101 101 95 94 90 86 85 88 87 90 93 92 94 95 99 102 95 96 101 103 109 107 108 108 111 111 117
108 109 109 106 105 107 108 107 107 105 101 99 101 100 101 101 96 95 100 103 100 104 102 87 88 90 92 94 92 94 103 102 100 103 104 109 101 108 109 111 118 115 117 118 123 118 116
111 109 109 107 106 104 102 102 101 103 99 99 98 99 102 101 100 100 100 103 104 107 103 87 93 89 90 98 98 102 105 105 106 109 115 113 113 118 118 120 125 128 129 130 125 120 108
114 112 111 112 109 108 106 106 104 105 104 106 104 102 105 105 102 102 103 109 109 112 109 93 95 94 94 100 107 110 110 113 114 120 122 117 125 129 133 129 128 133 127 111 111 107 104
123 122 120 118 116 111 110 111 111 109 109 108 112 115 112 110 107 104 107 109 113 117 107 98 101 100 105 107 112 116 117 119 121 126 132 134 135 131 131 129 129 122 114 101 91 92 98
136 131 132 129 127 125 121 118 119 121 120 120 121 122 119 115 111 110 114 118 120 113 108 109 108 108 111 114 118 118 120 124 128 137 136 134 128 127 119 118 116 97 91 86 81 76 76
140 137 137 135 134 129 128 129 131 128 129 129 126 128 123 118 117 116 121 123 126 112 113 119 118 116 115 120 125 127 126 134 136 135 127 114 112 105 97 92 89 81 81 77 73 64 60
147 146 144 143 141 141 138 133 129 132 130 130 130 127 126 126 125 125 128 130 120 113 119 120 127 124 123 127 132 133 133 129 129 113 104 102 88 82 84 82 75 71 67 65 63 58 53
143 146 148 147 146 143 143 140 139 138 138 135 132 133 131 129 129 132 136 131 124 123 126 129 129 134 134 135 134 132 126 115 109 102 95 86 79 75 71 66 66 61 57 56 56 49 47
128 129 132 134 137 139 139 141 143 142 140 137 136 134 128 129 134 137 139 130 128 130 130 131 133 135 135 133 134 128 121 108 92 89 84 76 65 65 65 58 56 46 47 49 50 46 41
122 123 123 122 122 123 123 123 129 130 137 137 138 137 135 135 136 133 130 129 127 125 128 132 133 129 128 119 117 107 100 89 83 75 63 60 60 56 55 48 43 44 36 42 43 41 39
108 108 108 111 114 118 118 115 114 116 123 129 134 134 136 138 136 132 132 128 129 127 127 118 112 114 105 100 96 88 79 72 66 58 53 53 50 47 46 43 38 33 33 35 37 35 33
92 95 96 99 103 103 104 108 111 110 109 110 114 118 122 124 121 120 117 114 111 103 98 94 86 87 89 82 71 66 64 56 54 51 47 45 44 38 35 32 27 28 29 30 30 31 36
80 79 83 87 88 92 94 95 97 99 107 107 107 108 103 102 99 102 100 99 94 91 87 83 82 74 69 60 54 52 52 47 46 44 39 36 31 27 27 25 24 24 25 28 30 33 35
67 69 69 71 75 77 81 85 91 91 92 94 95 96 95 94 97 98 94 92 86 81 77 66 63 61 49 45 46 45 44 43 40 33 31 28 28 27 29 29 27 28 31 34 36 38 39
58 60 60 61 62 66 70 77 76 82 84 84 83 82 78 75 76 76 69 66 63 61 58 54 49 42 39 41 39 42 39 34 33 27 24 28 31 32 30 32 33 33 36 38 41 43 46
49 49 50 51 52 55 59 62 62 68 70 70 72 75 71 70 70 69 66 62 58 56 55 49 41 38 36 37 39 37 34 31 30 27 25 29 32 32 34 36 35 38 35 40 42 45 48
41 42 43 43 44 48 51 52 54 59 62 62 62 64 64 64 65 69 67 62 57 54 47 42 34 39 41 35 34 33 31 30 28 26 28 29 30 31 32 36 40 42 42 47 47 50 51
36 37 38 40 38 39 42 46 48 52 54 52 55 55 58 59 61 61 55 55 51 42 38 39 43 41 33 33 30 30 32 30 28 30 30 33 35 37 40 43 43 44 44 46 46 51 51
32 33 32 31 32 33 35 38 41 43 45 49 49 53 56 57 58 54 52 45 41 39 40 39 39 35 31 30 29 31 30 31 33 33 35 38 41 43 44 45 44 48 47 45 44 43 39
28 26 26 28 28 29 32 35 36 39 43 44 48 48 48 47 47 46 41 39 38 40 41 38 37 31 31 31 32 31 34 38 37 38 40 42 44 44 46 46 45 43 40 37 37 34 32
24 25 25 26 27 28 30 34 38 39 40 43 43 44 44 43 42 41 43 44 44 39 39 39 35 32 33 34 34 36 39 42 41 40 41 44 44 46 43 41 37 35 33 33 32 30 28
Wind_Direction
269 270 266 269 269 271 272 272 268 269 269 271 274 275 275 273 276 278 274 278 278 281 278 277 277 278 278 276 276 278 279 283 283 285 284 280 276 277 278 280 281 282 283 285 287 287 287
268 267 267 267 269 269 269 268 268 267 270 271 272 273 274 271 274 276 275 277 278 274 275 277 277 276 275 276 275 278 280 282 282 281 285 280 275 275 281 276 279 282 284 290 292 290 287
263 265 266 265 266 268 269 267 268 269 271 272 275 271 274 273 274 276 274 276 277 276 277 277 278 277 276 274 275 279 279 281 280 281 280 279 277 281 281 282 284 290 290 290 290 286 284
264 263 263 263 263 264 265 267 269 269 271 272 273 273 274 275 273 272 273 274 276 277 275 275 275 275 276 275 277 280 279 279 281 281 280 281 281 280 282 284 287 286 285 284 284 284 285
263 264 263 264 262 262 265 265 266 267 268 269 268 269 270 270 270 272 272 270 271 273 273 273 272 273 274 275 278 280 279 282 282 280 279 278 277 277 280 284 285 284 283 284 284 284 284
259 261 262 260 262 261 263 265 265 266 266 267 267 266 266 267 267 268 268 269 268 271 271 270 271 271 273 274 275 277 278 277 277 276 277 279 278 280 281 284 283 281 283 284 286 284 285
260 258 258 259 261 262 261 264 265 266 267 266 267 267 269 270 268 269 270 271 271 268 269 269 272 275 276 274 277 278 275 276 276 279 282 281 281 282 281 280 281 279 281 282 282 282 282
258 258 258 260 259 260 260 262 264 265 266 266 266 266 267 269 271 271 273 273 272 270 267 269 274 272 273 275 275 278 277 276 276 280 282 282 280 279 278 280 283 280 280 280 280 286 283
258 258 258 258 260 262 260 262 262 264 264 264 265 267 267 266 269 270 270 272 270 270 269 270 271 272 275 274 274 278 279 277 278 279 281 283 284 282 281 280 282 283 286 288 287 286 283
257 258 256 256 256 259 260 260 261 261 262 260 263 266 268 269 269 269 271 270 271 270 271 270 270 272 271 273 277 279 281 282 281 282 283 282 286 285 283 284 285 288 288 288 286 282 278
256 258 258 257 256 258 258 258 259 259 261 262 262 265 268 269 269 269 269 271 269 270 271 272 272 273 273 275 278 279 279 281 284 284 286 287 287 287 288 289 287 289 286 283 281 277 273
254 254 256 258 256 257 258 257 260 260 262 262 264 266 267 267 268 269 269 269 269 270 274 274 273 274 274 274 277 280 280 282 283 284 285 287 286 287 287 287 287 287 284 282 277 275 274
255 255 258 257 255 256 257 259 260 261 263 265 265 264 265 266 267 266 268 269 269 272 277 277 276 276 276 277 276 278 280 282 284 286 286 286 286 285 286 284 284 282 282 281 278 273 272
257 257 257 258 257 257 257 259 260 261 262 262 262 262 264 264 266 265 265 266 268 272 275 277 275 275 279 280 279 279 281 285 287 290 288 286 286 286 285 283 280 281 279 279 276 275 272
259 259 259 259 259 258 259 260 259 259 261 260 259 261 262 262 262 263 264 266 269 270 272 274 276 279 279 280 282 283 285 288 289 288 287 288 287 284 282 282 282 279 278 278 278 276 274
260 259 258 258 258 259 259 259 259 258 259 258 259 258 260 261 262 263 263 266 269 269 271 272 274 277 278 282 284 285 288 288 288 289 287 285 284 284 280 281 280 280 278 277 277 274 274
259 258 257 257 258 259 258 257 257 256 256 256 257 258 259 261 261 262 264 268 267 269 270 272 274 277 279 281 283 286 288 286 288 284 283 283 281 278 278 277 276 275 271 272 274 276 269
257 257 257 256 255 256 255 254 254 255 254 254 256 258 259 259 259 261 264 266 269 270 271 273 275 277 280 279 280 280 282 284 281 281 280 280 278 279 277 274 271 269 266 267 268 268 266
254 254 254 254 253 254 254 254 253 254 254 255 255 256 257 258 259 262 264 266 269 271 272 273 274 275 276 277 279 279 278 277 276 278 277 276 280 277 272 270 271 274 264 262 263 265 263
253 254 253 252 251 251 251 251 250 250 251 253 254 256 256 258 260 263 265 266 267 268 269 271 273 273 276 276 272 272 272 273 275 277 275 274 275 272 273 272 274 268 265 265 265 258 251
254 252 249 250 248 247 248 248 248 248 249 250 251 253 254 257 260 260 260 262 264 265 268 269 271 271 269 264 263 264 269 270 272 272 270 274 275 276 278 276 270 261 260 260 261 258 255
252 252 252 249 247 246 244 244 245 244 246 247 248 252 254 253 255 258 258 260 263 263 263 262 263 260 256 256 260 265 266 268 268 262 268 268 273 276 272 272 265 254 254 257 258 259 259
246 246 247 247 243 240 240 241 242 244 244 246 246 247 248 248 248 250 252 254 253 251 252 256 255 252 251 254 258 258 262 260 258 256 265 269 269 265 264 263 262 264 267 269 267 267 264
243 242 243 244 241 237 236 239 237 239 241 240 242 242 242 242 244 245 244 244 245 247 248 252 248 244 245 247 254 257 253 249 247 250 262 270 267 265 265 265 265 264 265 265 263 263 263
239 237 236 235 235 232 230 231 230 231 234 235 236 237 238 237 235 236 241 243 243 241 243 244 240 239 238 248 252 250 243 243 248 253 259 263 263 264 266 266 268 268 267 267 269 271 272
229 229 228 229 229 228 227 226 226 225 227 227 228 230 229 228 228 231 232 232 237 234 228 226 231 234 234 246 246 242 238 245 251 253 257 264 268 269 271 274 276 277 276 276 276 276 270
221 222 222 222 219 218 218 217 217 218 217 218 218 218 220 220 221 221 223 226 223 221 221 224 228 228 236 242 238 237 240 242 247 256 265 269 270 275 280 282 285 283 281 279 278 274 273
216 213 209 209 209 208 208 209 209 207 206 206 208 210 212 211 211 212 214 215 211 214 218 222 224 227 235 236 235 234 241 247 252 261 269 275 278 283 287 287 284 282 281 277 276 272 269
199 197 196 196 196 196 197 196 196 196 196 198 200 198 198 199 199 196 199 198 203 205 211 215 219 223 234 231 235 240 249 252 258 269 273 278 283 290 289 286 284 281 279 278 278 275 272
Height
10674 10675 10679 10678 10679 10682 10685 10686 10686 10688 10688 10689 10692 10694 10696 10698 10699 10700 10701 10702 10701 10703 10703 10703 10702 10704 10708 10708 10696 10709 10697 10699 10700 10699 10698 10699 10699 10699 10700 10697 10695 10699 10698 10698 10698 10697 10695
10654 10655 10657 10659 10661 10664 10665 10666 10667 10669 10670 10671 10673 10675 10677 10679 10681 10683 10684 10686 10686 10687 10688 10689 10688 10690 10693 10696 10682 10687 10682 10686 10686 10686 10684 10683 10683 10683 10686 10682 10682 10679 10684 10684 10684 10680 10676
10632 10634 10635 10638 10643 10645 10645 10647 10649 10649 10650 10652 10654 10655 10657 10659 10662 10664 10667 10666 10668 10671 10672 10673 10673 10673 10678 10674 10667 10670 10670 10667 10669 10670 10672 10669 10670 10669 10664 10664 10664 10663 10664 10667 10666 10661 10661
10608 10612 10615 10618 10622 10625 10626 10627 10628 10630 10631 10633 10635 10635 10637 10639 10642 10647 10650 10648 10651 10653 10656 10657 10655 10656 10664 10654 10653 10651 10653 10652 10649 10654 10656 10652 10653 10651 10647 10646 10647 10646 10646 10646 10644 10639 10641
10584 10588 10592 10595 10600 10604 10605 10607 10608 10610 10612 10614 10615 10616 10618 10619 10622 10628 10630 10630 10632 10636 10640 10637 10636 10637 10644 10645 10635 10636 10633 10632 10633 10634 10633 10633 10632 10631 10630 10626 10630 10623 10626 10623 10636 10621 10612
10559 10563 10568 10572 10576 10580 10582 10583 10587 10588 10590 10593 10594 10594 10596 10598 10602 10606 10607 10609 10616 10616 10614 10616 10617 10622 10623 10627 10621 10622 10618 10615 10611 10610 10610 10607 10608 10613 10611 10603 10611 10602 10600 10609 10617 10614 10586
10533 10538 10543 10547 10551 10555 10559 10560 10563 10565 10568 10570 10571 10572 10574 10576 10583 10583 10585 10590 10590 10584 10599 10595 10597 10607 10601 10603 10606 10604 10604 10599 10594 10589 10587 10584 10591 10594 10584 10579 10582 10582 10581 10583 10594 10597 10567
10504 10511 10518 10522 10526 10529 10533 10537 10539 10543 10547 10549 10549 10549 10551 10552 10561 10562 10564 10562 10561 10560 10575 10579 10586 10591 10586 10578 10591 10582 10578 10579 10570 10574 10566 10563 10578 10572 10564 10561 10553 10556 10558 10563 10560 10568 10554
10476 10483 10491 10497 10501 10504 10508 10512 10516 10519 10523 10525 10526 10527 10529 10531 10541 10544 10539 10534 10534 10529 10541 10574 10572 10573 10563 10566 10566 10562 10545 10552 10552 10554 10545 10538 10555 10544 10543 10544 10532 10533 10529 10529 10523 10528 10524
10450 10456 10464 10470 10476 10480 10484 10488 10491 10495 10499 10501 10503 10504 10505 10510 10523 10519 10521 10509 10509 10500 10513 10561 10550 10556 10554 10539 10543 10535 10527 10524 10529 10522 10520 10523 10526 10511 10513 10516 10506 10495 10502 10488 10487 10484 10486
10421 10427 10435 10443 10450 10455 10460 10464 10466 10471 10476 10478 10479 10482 10484 10489 10499 10501 10497 10484 10483 10477 10488 10535 10532 10531 10532 10520 10505 10506 10511 10502 10506 10497 10486 10506 10492 10485 10474 10480 10473 10464 10461 10455 10450 10443 10442
10391 10398 10406 10414 10422 10429 10435 10438 10441 10445 10452 10453 10455 10458 10461 10465 10473 10479 10471 10461 10455 10452 10486 10506 10502 10509 10503 10500 10492 10484 10481 10484 10480 10474 10466 10467 10460 10459 10452 10443 10437 10434 10423 10416 10422 10420 10415
10354 10364 10373 10382 10390 10400 10408 10411 10412 10419 10424 10427 10429 10431 10438 10443 10452 10454 10441 10434 10426 10445 10468 10473 10472 10475 10480 10474 10468 10465 10459 10455 10454 10445 10441 10434 10435 10423 10421 10416 10407 10400 10394 10391 10394 10395 10400
10315 10327 10337 10345 10355 10365 10376 10384 10385 10390 10396 10397 10400 10404 10415 10422 10425 10426 10413 10407 10405 10457 10448 10431 10436 10447 10456 10448 10440 10436 10442 10433 10422 10411 10407 10402 10404 10393 10390 10388 10384 10379 10371 10372 10365 10376 10381
10274 10287 10297 10306 10317 10328 10341 10350 10354 10356 10362 10368 10368 10378 10388 10394 10395 10395 10386 10380 10412 10434 10423 10416 10403 10417 10423 10418 10415 10411 10411 10408 10396 10387 10381 10374 10374 10374 10365 10362 10361 10359 10356 10351 10353 10354 10361
10233 10244 10256 10266 10276 10290 10303 10316 10319 10322 10331 10333 10341 10347 10358 10366 10368 10363 10354 10367 10398 10403 10394 10390 10390 10386 10389 10392 10387 10387 10382 10379 10374 10364 10357 10352 10353 10348 10346 10348 10343 10342 10341 10337 10336 10342 10344
10195 10206 10217 10229 10241 10249 10263 10278 10281 10285 10298 10302 10309 10316 10336 10335 10338 10332 10336 10355 10372 10374 10370 10370 10367 10367 10366 10366 10361 10362 10363 10353 10354 10344 10338 10332 10335 10331 10329 10333 10329 10330 10326 10325 10323 10328 10331
10159 10168 10179 10192 10203 10213 10222 10237 10246 10253 10262 10269 10279 10284 10302 10305 10305 10312 10325 10336 10340 10347 10346 10347 10343 10341 10344 10344 10342 10340 10336 10336 10331 10326 10322 10319 10315 10318 10317 10318 10314 10312 10315 10313 10316 10317 10318
10126 10135 10145 10155 10167 10179 10188 10203 10216 10224 10228 10241 10246 10253 10270 10274 10276 10295 10303 10311 10316 10323 10323 10323 10322 10320 10322 10325 10321 10318 10317 10318 10312 10311 10311 10306 10307 10305 10302 10302 10303 10303 10302 10304 10306 10308 10310
10098 10106 10115 10126 10137 10147 10156 10171 10181 10193 10201 10210 10217 10223 10235 10251 10262 10272 10282 10286 10289 10296 10299 10301 10305 10303 10303 10304 10302 10304 10301 10302 10299 10298 10297 10295 10296 10293 10293 10292 10293 10294 10294 10297 10300 10303 10302
10070 10080 10089 10097 10107 10117 10129 10142 10152 10164 10170 10183 10192 10198 10217 10230 10244 10248 10252 10260 10268 10277 10282 10282 10285 10287 10287 10288 10289 10289 10288 10290 10286 10287 10285 10286 10285 10285 10284 10285 10288 10289 10290 10292 10294 10294 10297
10052 10057 10065 10074 10082 10094 10105 10114 10121 10137 10146 10156 10170 10184 10196 10211 10219 10226 10234 10244 10252 10256 10261 10265 10268 10271 10274 10275 10274 10277 10276 10276 10277 10278 10278 10279 10278 10278 10279 10280 10282 10284 10285 10285 10286 10286 10288
10033 10039 10046 10053 10063 10073 10082 10089 10107 10115 10125 10142 10152 10164 10177 10189 10198 10206 10221 10226 10231 10238 10244 10252 10256 10259 10261 10263 10265 10264 10267 10268 10269 10270 10271 10272 10272 10272 10273 10274 10275 10278 10278 10278 10277 10277 10277
10019 10026 10032 10038 10047 10057 10066 10075 10090 10099 10109 10122 10133 10144 10160 10171 10183 10193 10200 10210 10219 10224 10231 10240 10245 10249 10253 10250 10252 10256 10258 10259 10261 10262 10263 10265 10264 10265 10266 10266 10268 10267 10271 10266 10265 10265 10265
10008 10014 10020 10027 10033 10041 10052 10062 10073 10082 10091 10104 10117 10129 10142 10156 10166 10171 10185 10197 10205 10213 10225 10230 10238 10241 10238 10243 10244 10247 10251 10252 10254 10255 10256 10257 10257 10257 10258 10258 10258 10258 10259 10254 10255 10253 10253
9997 10004 10011 10017 10025 10033 10041 10050 10060 10069 10080 10095 10104 10117 10128 10137 10149 10160 10174 10182 10194 10207 10215 10217 10223 10228 10231 10233 10237 10240 10243 10246 10248 10249 10249 10249 10249 10249 10248 10247 10247 10245 10245 10242 10242 10239 10235
9990 9997 10004 10012 10019 10026 10033 10042 10051 10061 10073 10083 10095 10104 10114 10125 10136 10151 10164 10178 10188 10196 10204 10210 10215 10218 10222 10227 10230 10234 10236 10239 10240 10241 10241 10241 10239 10238 10237 10235 10235 10230 10228 10226 10226 10224 10224
9987 9994 10001 10007 10013 10021 10028 10036 10045 10055 10064 10076 10084 10095 10107 10121 10134 10145 10160 10171 10181 10188 10194 10202 10207 10211 10217 10220 10224 10228 10230 10231 10233 10233 10232 10231 10229 10228 10226 10223 10221 10217 10215 10214 10212 10212 10213
9984 9990 9997 10004 10011 10018 10025 10032 10040 10050 10061 10070 10081 10093 10106 10119 10131 10143 10151 10160 10170 10180 10188 10194 10200 10205 10209 10213 10218 10221 10223 10224 10225 10224 10223 10221 10220 10216 10214 10210 10208 10207 10205 10203 10202 10202 10202